Location: Newark
(52.3500°N, 175.9667°E)
Time: 21:26:59
(UTC+00:00)

Altair - Pass Details

Date: 24 April 2021
Orbit: 1501 x 1683 km, 47.2° (Epoch: 05 May)

Event Time Altitude Azimuth Distance (km) Brightness Sun altitude
Rises 23:19:28 0° 286° (WNW) 4,781 9.9 49.3°
Reaches altitude 10° 23:23:10 10° 275° (W) 3,765 9.5 49.5°
Maximum altitude 23:30:36 27° 223° (SW) 2,616 9.4 49.9°
Drops below altitude 10° 23:37:52 10° 170° (S) 3,663 10.4 50.2°
Sets 23:41:26 0° 159° (SSE) 4,629 10.6 50.3°
